Land O' Lakes, WI

5:31 PM CST on February 08, 2016 (GMT -0600)
Kings Land O'Lakes

Weather History for KLNL - August, 2013

Change the Weather History Date:

Tuesday, August 20, 2013

  Actual Average (KEGV) Record (KEGV)
Temperature  
Mean Temperature 70 °F -  
Max Temperature 85 °F 71 °F 87 °F (1998)
Min Temperature 55 °F 47 °F 35 °F (2012)
Cooling Degree Days 4    
Growing Degree Days 20 (Base 50)    
Moisture  
Dew Point 63 °F    
Average Humidity 75    
Maximum Humidity 100    
Minimum Humidity 50    
Precipitation  
Precipitation 0.00 in - - ()
Sea Level Pressure  
Sea Level Pressure 29.99 in    
Wind  
Wind Speed 3 mph (SSW)    
Max Wind Speed 15 mph    
Max Gust Speed 23 mph    
Visibility 8 miles    
Events Fog    
Averages and records for this station are not official NWS values.
T = Trace of Precipitation, MM = Missing Value Source: NWS Daily Summary

Daily Weather History Graph

Daily Weather History Graph

Search for Another Location

Airport or City:

Trip Planner

Search our weather history database for the weather conditions in past years. The results will help you decide how hot, cold, wet, or windy it might be!

Date:

Astronomy

Aug. 20, 2013 Rise Set
Actual Time 6:02 AM CDT 7:56 PM CDT
Civil Twilight 5:30 AM CDT 8:28 PM CDT
Nautical Twilight 4:50 AM CDT 9:08 PM CDT
Astronomical Twilight 4:07 AM CDT 9:51 PM CDT
Moon 7:24 PM CDT (8/20) 5:34 AM CDT (8/20)
Length of Visible Light 14h 58m
Length of Day
13h 54m
Full, 100% of the Moon is Illuminated
Aug 20
Full
Aug 20
Full
Aug 28
Last Quarter
Sep 5
New
Sep 12
First Quarter

Hourly Weather History & Observations

Time (CDT) Temp. Heat Index Dew Point Humidity Pressure Visibility Wind Dir Wind Speed Gust Speed Precip Events Conditions
12:15 AM 59.2 °F - 58.5 °F 97% 30.00 in 1.8 mi Calm Calm - N/A   Mist
12:35 AM 59.0 °F - 58.3 °F 97% 30.00 in 2.5 mi Calm Calm - N/A   Clear
12:55 AM 58.3 °F - 57.7 °F 98% 30.00 in 3.0 mi Calm Calm - N/A   Clear
1:15 AM 58.3 °F - 57.7 °F 98% 30.00 in 5.0 mi Calm Calm - N/A   Clear
1:35 AM 57.4 °F - 57.0 °F 99% 30.00 in 5.0 mi Calm Calm - N/A   Clear
1:55 AM 58.1 °F - 57.6 °F 98% 30.00 in 7.0 mi Calm Calm - N/A   Clear
2:15 AM 57.6 °F - 57.0 °F 98% 30.00 in 10.0 mi Calm Calm - N/A   Clear
2:35 AM 56.8 °F - 56.1 °F 97% 29.99 in 4.0 mi Calm Calm - N/A   Clear
2:55 AM 57.0 °F - 56.5 °F 98% 29.99 in 4.0 mi Calm Calm - N/A   Clear
3:15 AM 57.7 °F - 57.2 °F 98% 29.99 in 5.0 mi Calm Calm - N/A   Clear
3:35 AM 57.6 °F - 56.7 °F 97% 29.99 in 3.0 mi Calm Calm - N/A   Clear
3:55 AM 57.9 °F - 57.2 °F 97% 29.99 in 4.0 mi Calm Calm - N/A   Clear
4:15 AM 57.4 °F - 56.7 °F 97% 30.00 in 2.5 mi Calm Calm - N/A   Clear
4:35 AM 57.0 °F - 56.3 °F 97% 30.00 in 0.2 mi Calm Calm - N/A Fog Fog
4:55 AM 56.5 °F - 55.9 °F 98% 30.00 in 0.2 mi Calm Calm - N/A Fog Fog
5:15 AM 55.9 °F - 55.6 °F 99% 30.01 in 0.8 mi Calm Calm - N/A   Mostly Cloudy
5:35 AM 55.4 °F - 55.0 °F 99% 30.01 in 0.2 mi Calm Calm - N/A Fog Fog
5:55 AM 55.4 °F - 55.2 °F 99% 30.01 in 1.2 mi Calm Calm - N/A   Mist
6:15 AM 55.0 °F - 54.9 °F 99% 30.02 in 0.5 mi Calm Calm - N/A Fog Fog
6:35 AM 55.6 °F - 55.6 °F 100% 30.02 in 0.2 mi Calm Calm - N/A Fog Fog
6:55 AM 58.8 °F - 58.8 °F 100% 30.03 in 0.8 mi Calm Calm - N/A   Mist
7:15 AM 62.1 °F - 62.1 °F 100% 30.03 in 3.0 mi Calm Calm - N/A   Clear
7:35 AM 63.5 °F - 63.5 °F 100% 30.03 in 4.0 mi Calm Calm - N/A   Clear
7:55 AM 64.4 °F - 64.4 °F 100% 30.03 in 5.0 mi Calm Calm - N/A   Clear
8:15 AM 66.4 °F - 63.3 °F 90% 30.03 in 7.0 mi SSW 3.5 mph - N/A   Clear
8:35 AM 68.5 °F - 63.0 °F 82% 30.03 in 10.0 mi SSW 3.5 mph - N/A   Clear
8:55 AM 70.7 °F - 63.1 °F 77% 30.03 in 10.0 mi SSW 6.9 mph - N/A   Clear
9:15 AM 71.8 °F - 63.3 °F 75% 30.02 in 10.0 mi SSW 8.1 mph - N/A   Clear
9:35 AM 73.4 °F - 63.7 °F 71% 30.02 in 10.0 mi South 6.9 mph - N/A   Clear
9:55 AM 74.8 °F - 63.9 °F 69% 30.02 in 10.0 mi SSW 6.9 mph - N/A   Clear
10:15 AM 76.3 °F - 64.4 °F 67% 30.01 in 10.0 mi SSW 6.9 mph - N/A   Clear
10:35 AM 77.4 °F - 65.3 °F 66% 30.01 in 10.0 mi SSW 4.6 mph - N/A   Clear
10:55 AM 78.6 °F - 65.5 °F 64% 30.01 in 10.0 mi SSW 8.1 mph - N/A   Scattered Clouds
11:15 AM 79.5 °F - 65.5 °F 62% 30.01 in 10.0 mi South 8.1 mph 17.3 mph N/A   Scattered Clouds
11:35 AM 79.7 °F - 64.9 °F 61% 30.01 in 10.0 mi SSW 8.1 mph 17.3 mph N/A   Scattered Clouds
11:55 AM 80.8 °F 82.6 °F 65.3 °F 59% 30.00 in 10.0 mi SW 8.1 mph 19.6 mph N/A   Scattered Clouds
12:15 PM 81.7 °F 83.5 °F 64.9 °F 57% 30.00 in 10.0 mi SW 9.2 mph 16.1 mph N/A   Scattered Clouds
12:35 PM 82.4 °F 83.9 °F 64.0 °F 54% 30.00 in 10.0 mi SSW 15.0 mph 19.6 mph N/A   Scattered Clouds
12:55 PM 82.6 °F 84.1 °F 64.2 °F 54% 29.99 in 10.0 mi SSW 10.4 mph 20.7 mph N/A   Scattered Clouds
1:15 PM 82.6 °F 84.1 °F 64.2 °F 54% 29.99 in 10.0 mi SSW 15.0 mph 23.0 mph N/A   Mostly Cloudy
1:35 PM 83.7 °F 85.3 °F 64.8 °F 53% 29.99 in 10.0 mi SW 10.4 mph 19.6 mph N/A   Mostly Cloudy
1:55 PM 82.9 °F 84.4 °F 64.4 °F 53% 29.98 in 10.0 mi SW 13.8 mph 19.6 mph N/A   Mostly Cloudy
2:15 PM 83.8 °F 85.3 °F 64.6 °F 52% 29.98 in 10.0 mi SSW 11.5 mph 17.3 mph N/A   Scattered Clouds
2:35 PM 83.7 °F 84.9 °F 64.0 °F 51% 29.97 in 10.0 mi SW 13.8 mph 18.4 mph N/A   Mostly Cloudy
2:55 PM 83.5 °F 85.1 °F 64.9 °F 53% 29.96 in 10.0 mi SSW 9.2 mph 17.3 mph N/A   Mostly Cloudy
3:15 PM 84.2 °F 85.8 °F 64.8 °F 52% 29.96 in 10.0 mi SSW 11.5 mph 17.3 mph N/A   Mostly Cloudy
3:35 PM 83.7 °F 84.9 °F 64.0 °F 51% 29.96 in 10.0 mi SW 10.4 mph 18.4 mph N/A   Mostly Cloudy
3:55 PM 84.6 °F 85.9 °F 64.2 °F 50% 29.96 in 10.0 mi SW 11.5 mph 18.4 mph N/A   Mostly Cloudy
4:15 PM 84.7 °F 86.3 °F 64.6 °F 51% 29.95 in 10.0 mi SSW 9.2 mph - N/A   Scattered Clouds
4:35 PM 83.5 °F 84.9 °F 64.4 °F 52% 29.95 in 10.0 mi SSW 9.2 mph 16.1 mph N/A   Mostly Cloudy
4:55 PM 82.6 °F 84.3 °F 64.8 °F 55% 29.95 in 10.0 mi SSW 10.4 mph - N/A   Scattered Clouds
5:15 PM 81.9 °F 83.5 °F 64.8 °F 56% 29.95 in 10.0 mi SSW 8.1 mph 16.1 mph N/A   Mostly Cloudy
5:35 PM 83.5 °F 85.3 °F 65.1 °F 54% 29.95 in 10.0 mi SSW 9.2 mph - N/A   Mostly Cloudy
5:55 PM 82.0 °F 83.9 °F 65.3 °F 57% 29.95 in 10.0 mi SW 12.7 mph 16.1 mph N/A   Scattered Clouds
6:15 PM 82.2 °F 84.0 °F 65.3 °F 56% 29.95 in 10.0 mi SSW 9.2 mph 18.4 mph N/A   Clear
6:35 PM 80.8 °F 82.6 °F 65.5 °F 59% 29.95 in 10.0 mi SSW 6.9 mph - N/A   Clear
6:55 PM 81.0 °F 83.0 °F 65.7 °F 60% 29.94 in 10.0 mi SSW 8.1 mph - N/A   Scattered Clouds
7:15 PM 80.2 °F 82.2 °F 65.7 °F 61% 29.94 in 10.0 mi South 6.9 mph - N/A   Mostly Cloudy
7:35 PM 79.3 °F - 65.7 °F 63% 29.94 in 10.0 mi SSW 4.6 mph - N/A   Mostly Cloudy
7:55 PM 78.6 °F - 66.0 °F 65% 29.95 in 10.0 mi SSW 5.8 mph - N/A   Mostly Cloudy
8:15 PM 77.9 °F - 66.2 °F 67% 29.96 in 10.0 mi SSW 4.6 mph - N/A   Scattered Clouds
8:35 PM 76.8 °F - 66.2 °F 70% 29.96 in 10.0 mi South 5.8 mph - N/A   Scattered Clouds
8:55 PM 76.3 °F - 66.2 °F 71% 29.96 in 10.0 mi SSW 4.6 mph - N/A   Mostly Cloudy
9:15 PM 75.9 °F - 66.2 °F 72% 29.97 in 10.0 mi SSW 4.6 mph - N/A   Mostly Cloudy
9:35 PM 75.2 °F - 66.0 °F 73% 29.97 in 10.0 mi SSW 5.8 mph - N/A   Scattered Clouds
9:55 PM 74.5 °F - 66.0 °F 75% 29.97 in 10.0 mi SSW 3.5 mph - N/A   Clear
10:15 PM 74.3 °F - 65.8 °F 75% 29.97 in 10.0 mi South 6.9 mph - N/A   Scattered Clouds
10:35 PM 73.8 °F - 66.0 °F 77% 29.97 in 10.0 mi SSW 5.8 mph - N/A   Scattered Clouds
10:55 PM 73.4 °F - 66.0 °F 78% 29.97 in 10.0 mi SSW 6.9 mph - N/A   Clear
11:15 PM 73.4 °F - 65.8 °F 77% 29.97 in 10.0 mi SSW 5.8 mph - N/A   Clear
11:35 PM 72.9 °F - 65.7 °F 78% 29.96 in 10.0 mi SSW 5.8 mph - N/A   Clear
11:55 PM 72.5 °F - 65.7 °F 79% 29.96 in 10.0 mi SSW 5.8 mph - N/A   Clear